| time (UTC) | temp C | wind direction | speed KPH | gust KPH | rain 1hr cm | rain 24hr cm | rain mn cm | humidity % | barometer mb |
| 20260906231608 | 17 | 350 | 6.4 | 12.9 | 0.00 | 0.13 | 0.05 | 76 | 1016.2 |
| 20260906230057 | 17 | 272 | 4.8 | 9.7 | 0.00 | 0.13 | 0.05 | 75 | 1016.4 |
| 20260906224555 | 17 | 298 | 3.2 | 12.9 | 0.00 | 0.13 | 0.05 | 77 | 1016.6 |
| 20260906223104 | 17 | 309 | 8.0 | 12.9 | 0.00 | 0.13 | 0.05 | 78 | 1016.7 |
| 20260906221555 | 17 | 19 | 4.8 | 12.9 | 0.00 | 0.13 | 0.05 | 76 | 1016.7 |
| 20260906220054 | 17 | 63 | 9.7 | 14.5 | 0.00 | 0.13 | 0.05 | 76 | 1016.6 |
| 20260906214554 | 17 | 36 | 8.0 | 16.1 | 0.00 | 0.13 | 0.05 | 76 | 1016.7 |
| 20260906213052 | 17 | 33 | 8.0 | 17.7 | 0.00 | 0.13 | 0.05 | 75 | 1016.6 |
| 20260906211551 | 17 | 5 | 9.7 | 19.3 | 0.00 | 0.13 | 0.05 | 74 | 1016.6 |
| 20260906204558 | 17 | 24 | 12.9 | 22.5 | 0.00 | 0.13 | 0.05 | 76 | 1016.6 |
| 20260906203048 | 17 | 19 | 14.5 | 22.5 | 0.00 | 0.13 | 0.05 | 76 | 1016.7 |
| 20260906201551 | 17 | 20 | 12.9 | 24.1 | 0.00 | 0.13 | 0.05 | 76 | 1016.8 |
| 20260906200047 | 17 | 14 | 16.1 | 25.7 | 0.00 | 0.13 | 0.05 | 75 | 1016.9 |
| 20260906194602 | 17 | 35 | 14.5 | 24.1 | 0.00 | 0.13 | 0.05 | 74 | 1016.9 |
| 20260906193045 | 17 | 360 | 14.5 | 24.1 | 0.00 | 0.13 | 0.05 | 74 | 1016.9 |
| 20260906191545 | 17 | 38 | 17.7 | 27.4 | 0.00 | 0.13 | 0.05 | 72 | 1016.9 |
| 20260906190043 | 17 | 9 | 19.3 | 29.0 | 0.00 | 0.13 | 0.05 | 71 | 1016.9 |
| 20260906184539 | 17 | 40 | 20.9 | 29.0 | 0.00 | 0.13 | 0.05 | 72 | 1016.8 |
| 20260906183050 | 16 | 10 | 19.3 | 30.6 | 0.00 | 0.13 | 0.05 | 76 | 1017.1 |
| 20260906181538 | 15 | 49 | 16.1 | 24.1 | 0.03 | 0.13 | 0.05 | 85 | 1016.9 |
| 20260906180030 | 15 | 326 | 4.8 | 16.1 | 0.03 | 0.13 | 0.05 | 89 | 1017.5 |
| 20260906174524 | 14 | 47 | 12.9 | 25.7 | 0.03 | 0.13 | 0.05 | 89 | 1017.6 |
| 20260906173021 | 14 | 255 | 1.6 | 6.4 | 0.03 | 0.13 | 0.05 | 88 | 1018.6 |
| 20260906171521 | 14 | 19 | 0.0 | 4.8 | 0.00 | 0.10 | 0.03 | 86 | 1018.9 |
| 20260906170020 | 14 | 20 | 3.2 | 9.7 | 0.00 | 0.10 | 0.03 | 86 | 1018.7 |
| 20260906164519 | 14 | 43 | 8.0 | 16.1 | 0.00 | 0.10 | 0.03 | 87 | 1018.7 |
| 20260906163019 | 14 | 69 | 3.2 | 9.7 | 0.03 | 0.10 | 0.03 | 90 | 1018.7 |
| 20260906161535 | 13 | 19 | 1.6 | 8.0 | 0.03 | 0.10 | 0.03 | 90 | 1018.6 |
| 20260906160017 | 13 | 344 | 3.2 | 6.4 | 0.03 | 0.10 | 0.03 | 91 | 1018.6 |
| 20260906154514 | 12 | 324 | 3.2 | 12.9 | 0.03 | 0.10 | 0.03 | 89 | 1019.0 |
| 20260906153015 | 12 | 314 | 6.4 | 19.3 | 0.00 | 0.08 | 0.00 | 87 | 1019.2 |
| 20260906151518 | 12 | 315 | 8.0 | 24.1 | 0.00 | 0.08 | 0.00 | 87 | 1019.3 |
| 20260906150013 | 12 | 296 | 12.9 | 24.1 | 0.00 | 0.08 | 0.00 | 87 | 1019.2 |
| 20260906144514 | 12 | 294 | 16.1 | 30.6 | 0.00 | 0.08 | 0.00 | 84 | 1019.6 |
| 20260906143008 | 15 | 290 | 4.8 | 14.5 | 0.00 | 0.08 | 0.00 | 85 | 1019.6 |
| 20260906141510 | 14 | 32 | 11.3 | 17.7 | 0.00 | 0.08 | 0.00 | 86 | 1019.0 |
| 20260906140010 | 14 | 15 | 11.3 | 16.1 | 0.00 | 0.08 | 0.00 | 85 | 1019.2 |
| 20260906134505 | 14 | 291 | 4.8 | 12.9 | 0.00 | 0.15 | 0.00 | 85 | 1019.1 |
| 20260906133007 | 14 | 20 | 6.4 | 17.7 | 0.00 | 0.15 | 0.00 | 86 | 1018.7 |
| 20260906131701 | 13 | 59 | 9.7 | 17.7 | 0.00 | 0.15 | 0.00 | 86 | 1018.7 |
| 20260906124555 | 13 | 11 | 14.5 | 20.9 | 0.00 | 0.15 | 0.00 | 87 | 1019.1 |
| 20260906123102 | 13 | 37 | 16.1 | 24.1 | 0.00 | 0.15 | 0.00 | 87 | 1018.8 |
| 20260906121552 | 13 | 5 | 14.5 | 24.1 | 0.00 | 0.15 | 0.00 | 87 | 1018.9 |
| 20260906120053 | 13 | 360 | 12.9 | 19.3 | 0.00 | 0.15 | 0.00 | 87 | 1019.1 |
| 20260906114552 | 13 | 10 | 14.5 | 22.5 | 0.00 | 0.15 | 0.00 | 87 | 1019.3 |
| 20260906113049 | 13 | 355 | 14.5 | 25.7 | 0.00 | 0.15 | 0.00 | 86 | 1019.1 |
| 20260906111549 | 13 | 360 | 16.1 | 24.1 | 0.00 | 0.15 | 0.00 | 85 | 1019.2 |
| 20260906110046 | 13 | 341 | 14.5 | 25.7 | 0.00 | 0.15 | 0.00 | 84 | 1019.1 |
| 20260906104546 | 13 | 10 | 19.3 | 25.7 | 0.00 | 0.15 | 0.00 | 84 | 1019.1 |
| 20260906103048 | 13 | 342 | 14.5 | 20.9 | 0.00 | 0.15 | 0.00 | 84 | 1019.3 |
| 20260906101546 | 13 | 360 | 12.9 | 22.5 | 0.00 | 0.15 | 0.00 | 84 | 1019.4 |
| 20260906100043 | 13 | 340 | 11.3 | 22.5 | 0.00 | 0.15 | 0.00 | 85 | 1019.4 |
| 20260906094550 | 13 | 355 | 19.3 | 30.6 | 0.00 | 0.15 | 0.00 | 85 | 1019.3 |
| 20260906093038 | 13 | 337 | 14.5 | 27.4 | 0.00 | 0.15 | 0.00 | 84 | 1019.5 |
| 20260906091538 | 13 | 315 | 8.0 | 19.3 | 0.00 | 0.15 | 0.00 | 83 | 1019.6 |
| 20260906090048 | 14 | 11 | 16.1 | 30.6 | 0.00 | 0.15 | 0.00 | 83 | 1019.8 |
| 20260906084536 | 13 | 276 | 19.3 | 27.4 | 0.00 | 0.15 | 0.00 | 86 | 1020.1 |
| 20260906083037 | 13 | 343 | 11.3 | 25.7 | 0.00 | 0.15 | 0.00 | 84 | 1020.1 |
| 20260906081532 | 13 | 5 | 11.3 | 22.5 | 0.00 | 0.15 | 0.00 | 84 | 1019.9 |
| 20260906080038 | 13 | 355 | 12.9 | 17.7 | 0.00 | 0.15 | 0.00 | 84 | 1019.8 |
| 20260906074532 | 13 | 5 | 14.5 | 22.5 | 0.00 | 0.15 | 0.00 | 84 | 1019.8 |
| 20260906073027 | 13 | 341 | 9.7 | 16.1 | 0.00 | 0.15 | 0.00 | 84 | 1019.9 |
| 20260906071528 | 14 | 360 | 17.7 | 29.0 | 0.00 | 0.15 | 0.00 | 83 | 1019.9 |
| 20260906070024 | 14 | 350 | 17.7 | 22.5 | 0.00 | 0.15 | 0.00 | 83 | 1020.2 |
| 20260906064522 | 14 | 331 | 12.9 | 20.9 | 0.00 | 0.15 | 0.00 | 84 | 1020.7 |
| 20260906063020 | 14 | 360 | 12.9 | 25.7 | 0.00 | 0.15 | 0.00 | 84 | 1020.6 |
| 20260906061517 | 13 | 348 | 17.7 | 27.4 | 0.00 | 0.15 | 0.00 | 84 | 1020.4 |
| 20260906060020 | 13 | 342 | 19.3 | 25.7 | 0.00 | 0.15 | 0.00 | 84 | 1020.5 |
| 20260906054513 | 13 | 355 | 12.9 | 24.1 | 0.03 | 0.15 | 0.15 | 84 | 1020.6 |
| 20260906053013 | 13 | 346 | 19.3 | 27.4 | 0.03 | 0.15 | 0.15 | 84 | 1020.4 |
| 20260906051515 | 13 | 360 | 17.7 | 27.4 | 0.03 | 0.15 | 0.15 | 82 | 1020.4 |
| 20260906050011 | 13 | 360 | 19.3 | 30.6 | 0.03 | 0.15 | 0.15 | 82 | 1020.2 |
| 20260906044513 | 13 | 360 | 16.1 | 27.4 | 0.00 | 0.13 | 0.13 | 82 | 1020.6 |
| 20260906043021 | 13 | 5 | 22.5 | 33.8 | 0.00 | 0.13 | 0.13 | 83 | 1020.0 |
| 20260906041508 | 13 | 355 | 19.3 | 33.8 | 0.05 | 0.13 | 0.13 | 83 | 1019.6 |
| 20260906040008 | 13 | 360 | 20.9 | 29.0 | 0.05 | 0.13 | 0.13 | 82 | 1019.8 |
| 20260906034507 | 14 | 360 | 22.5 | 30.6 | 0.05 | 0.13 | 0.13 | 81 | 1020.1 |
| 20260906033006 | 15 | 355 | 9.7 | 25.7 | 0.03 | 0.10 | 0.10 | 76 | 1020.7 |
| 20260906031505 | 15 | 309 | 6.4 | 27.4 | 0.00 | 0.08 | 0.08 | 68 | 1021.3 |
| 20260906030004 | 15 | 341 | 25.7 | 43.5 | 0.00 | 0.08 | 0.08 | 67 | 1019.3 |
| 20260906024502 | 15 | 10 | 27.4 | 35.4 | 0.00 | 0.08 | 0.08 | 67 | 1019.0 |
| 20260906023003 | 15 | 360 | 24.1 | 38.6 | 0.00 | 0.08 | 0.08 | 67 | 1018.7 |
| 20260906021603 | 16 | 10 | 24.1 | 37.0 | 0.00 | 0.08 | 0.08 | 66 | 1018.7 |
| 20260906020059 | 16 | 9 | 19.3 | 30.6 | 0.00 | 0.08 | 0.08 | 64 | 1018.8 |
| 20260906014559 | 17 | 15 | 20.9 | 29.0 | 0.00 | 0.08 | 0.08 | 62 | 1018.7 |
| 20260906013059 | 17 | 9 | 17.7 | 25.7 | 0.00 | 0.08 | 0.08 | 60 | 1018.6 |
| 20260906011559 | 18 | 5 | 17.7 | 25.7 | 0.00 | 0.08 | 0.08 | 58 | 1018.5 |
| 20260906010139 | 18 | 360 | 17.7 | 27.4 | 0.00 | 0.08 | 0.08 | 57 | 1018.6 |
| 20260906004614 | 18 | 19 | 20.9 | 30.6 | 0.00 | 0.08 | 0.08 | 56 | 1018.7 |
| 20260906003056 | 19 | 5 | 20.9 | 30.6 | 0.00 | 0.08 | 0.08 | 54 | 1018.8 |
| 20260906001603 | 20 | 20 | 20.9 | 33.8 | 0.00 | 0.08 | 0.08 | 53 | 1018.7 |
| 20260906000056 | 21 | 37 | 19.3 | 30.6 | 0.00 | 0.08 | 0.08 | 51 | 1018.7 |
| 20260905234555 | 21 | 26 | 17.7 | 25.7 | 0.00 | 0.08 | 0.08 | 50 | 1019.0 |
| 20260905233055 | 21 | 5 | 14.5 | 22.5 | 0.00 | 0.08 | 0.08 | 48 | 1018.9 |